Temp
-27 -27 -27 -27 -27 -27 -28 -28 -29 -29 -28 -24 -22 -23 -21 -20 -20 -19 -19 -17 -16 -17 -17 -17 -18 -18 -17 -17 -16 -16 -16 -16 -16 -16 -16 -16 -16 -16 -16 -16 -16 -15 -15 -15 -15 -15 -15 -15 -14 -15 -15 -15 -15 -15
-27 -28 -28 -28 -28 -28 -29 -29 -28 -28 -27 -23 -21 -21 -21 -20 -20 -19 -19 -18 -16 -17 -18 -17 -17 -16 -17 -18 -16 -16 -16 -16 -16 -16 -16 -16 -16 -16 -16 -15 -15 -15 -15 -15 -15 -15 -15 -15 -15 -15 -14 -15 -15 -15
-26 -27 -26 -27 -28 -28 -28 -27 -26 -25 -22 -22 -21 -21 -20 -20 -19 -19 -17 -16 -16 -18 -19 -18 -17 -17 -17 -17 -16 -16 -16 -16 -16 -16 -16 -16 -16 -16 -16 -16 -15 -16 -15 -15 -15 -16 -15 -15 -15 -15 -15 -15 -15 -15
-23 -23 -24 -24 -24 -23 -24 -23 -22 -22 -22 -22 -21 -21 -20 -20 -19 -18 -17 -17 -18 -19 -19 -17 -17 -17 -17 -17 -17 -16 -16 -16 -17 -17 -16 -16 -16 -16 -16 -16 -15 -15 -15 -15 -15 -16 -16 -16 -15 -15 -15 -15 -15 -16
-22 -22 -21 -22 -21 -21 -22 -22 -21 -21 -21 -20 -21 -21 -20 -19 -19 -18 -18 -18 -18 -18 -18 -18 -18 -18 -18 -17 -17 -16 -17 -17 -17 -17 -16 -16 -16 -16 -16 -16 -16 -15 -15 -16 -16 -15 -16 -16 -15 -15 -15 -16 -16 -17
-21 -21 -21 -21 -20 -20 -20 -20 -20 -20 -20 -20 -20 -20 -20 -19 -19 -19 -19 -19 -18 -18 -18 -18 -18 -18 -18 -17 -17 -17 -17 -17 -17 -17 -17 -16 -16 -16 -16 -16 -15 -16 -16 -16 -16 -16 -16 -15 -16 -16 -17 -17 -17 -17
-20 -20 -20 -21 -20 -20 -20 -20 -20 -19 -20 -20 -20 -20 -20 -19 -19 -19 -18 -18 -18 -18 -18 -18 -18 -18 -17 -17 -17 -17 -17 -17 -17 -17 -17 -16 -16 -16 -16 -16 -16 -16 -16 -16 -17 -17 -16 -16 -16 -17 -17 -18 -18 -18
-20 -20 -20 -20 -20 -20 -20 -20 -20 -20 -20 -20 -20 -20 -19 -19 -18 -19 -18 -19 -19 -19 -18 -18 -17 -17 -17 -17 -17 -17 -17 -17 -17 -17 -17 -17 -17 -16 -16 -16 -16 -16 -16 -17 -17 -17 -17 -17 -17 -18 -18 -18 -18 -19
-20 -19 -20 -20 -20 -20 -20 -20 -20 -20 -20 -20 -20 -20 -19 -19 -19 -19 -19 -19 -19 -18 -18 -18 -17 -17 -17 -17 -18 -17 -17 -17 -17 -17 -17 -17 -17 -16 -16 -17 -17 -17 -17 -17 -18 -18 -18 -18 -18 -18 -18 -18 -19 -19
-20 -20 -20 -20 -19 -19 -19 -20 -20 -20 -20 -21 -20 -20 -20 -19 -19 -19 -19 -18 -19 -18 -18 -18 -18 -18 -18 -18 -18 -18 -18 -17 -17 -17 -17 -17 -17 -17 -17 -17 -18 -18 -18 -18 -18 -18 -18 -19 -19 -19 -19 -19 -20 -20
-19 -20 -20 -19 -20 -19 -19 -20 -20 -20 -20 -20 -20 -20 -20 -20 -19 -20 -19 -19 -18 -19 -18 -18 -18 -18 -18 -18 -18 -18 -18 -18 -17 -17 -17 -17 -17 -18 -18 -18 -19 -19 -19 -19 -19 -19 -19 -19 -19 -20 -20 -20 -20 -21
-20 -20 -19 -19 -19 -19 -19 -19 -20 -20 -20 -20 -20 -20 -20 -20 -20 -20 -19 -19 -19 -19 -19 -19 -19 -19 -19 -19 -19 -19 -19 -19 -18 -17 -18 -17 -18 -19 -19 -19 -19 -19 -19 -19 -19 -19 -20 -20 -20 -20 -20 -21 -21 -21
-19 -19 -19 -19 -19 -20 -19 -20 -19 -20 -20 -20 -20 -20 -20 -20 -20 -20 -20 -19 -19 -19 -19 -19 -19 -19 -19 -19 -19 -19 -19 -18 -18 -18 -17 -17 -19 -19 -20 -20 -20 -20 -20 -20 -20 -20 -20 -20 -21 -21 -21 -21 -21 -22
-20 -19 -19 -20 -19 -19 -19 -19 -19 -20 -20 -20 -20 -20 -20 -20 -20 -20 -20 -19 -19 -19 -19 -19 -19 -19 -20 -20 -20 -19 -19 -19 -19 -18 -18 -19 -20 -20 -20 -20 -20 -20 -20 -20 -21 -21 -21 -21 -21 -21 -22 -22 -22 -23
-20 -20 -20 -19 -20 -20 -19 -19 -19 -19 -19 -20 -20 -20 -20 -20 -20 -20 -19 -19 -19 -20 -20 -20 -20 -20 -20 -20 -20 -20 -20 -20 -19 -19 -20 -20 -20 -20 -20 -21 -21 -21 -21 -21 -21 -21 -22 -22 -22 -22 -23 -23 -24 -24
-20 -20 -20 -19 -19 -19 -20 -20 -19 -20 -19 -20 -20 -20 -20 -20 -20 -20 -20 -20 -20 -20 -20 -20 -20 -20 -20 -20 -20 -20 -20 -20 -20 -20 -20 -21 -21 -21 -21 -21 -21 -21 -21 -22 -22 -22 -23 -23 -23 -24 -24 -24 -24 -25
-20 -20 -20 -20 -20 -19 -19 -19 -20 -19 -20 -20 -20 -20 -20 -20 -20 -20 -20 -20 -20 -20 -20 -20 -20 -20 -20 -21 -20 -20 -20 -21 -21 -21 -21 -21 -21 -21 -21 -22 -22 -22 -22 -23 -23 -23 -24 -24 -24 -25 -25 -25 -25 -25
-21 -21 -21 -20 -20 -20 -20 -20 -20 -20 -20 -20 -20 -20 -20 -20 -20 -20 -20 -20 -20 -20 -20 -20 -20 -21 -21 -21 -21 -21 -21 -21 -21 -21 -21 -21 -22 -22 -22 -22 -22 -23 -23 -23 -24 -24 -25 -25 -25 -25 -25 -26 -26 -26
-21 -21 -21 -21 -21 -21 -21 -21 -21 -21 -21 -21 -20 -20 -20 -20 -20 -20 -20 -20 -20 -21 -21 -21 -21 -21 -21 -21 -21 -21 -21 -21 -21 -22 -22 -22 -22 -22 -23 -23 -23 -24 -25 -25 -25 -25 -25 -25 -26 -26 -26 -27 -28 -28
-21 -21 -21 -21 -21 -21 -21 -21 -21 -21 -21 -20 -21 -21 -21 -21 -21 -21 -21 -21 -21 -21 -21 -21 -21 -21 -21 -21 -22 -22 -22 -22 -22 -22 -23 -23 -24 -24 -24 -24 -25 -25 -25 -25 -25 -25 -26 -26 -27 -27 -28 -29 -30 -31
-23 -23 -22 -22 -22 -21 -21 -21 -21 -21 -21 -21 -21 -21 -21 -21 -22 -22 -22 -22 -22 -21 -22 -22 -22 -22 -22 -21 -22 -22 -24 -24 -24 -24 -24 -24 -25 -25 -25 -25 -25 -25 -26 -26 -26 -27 -27 -28 -29 -30 -31 -31 -32 -32
-26 -25 -25 -26 -25 -25 -24 -24 -24 -24 -23 -23 -23 -23 -23 -23 -23 -23 -23 -23 -23 -24 -24 -24 -24 -24 -25 -25 -25 -25 -25 -25 -25 -25 -25 -25 -25 -26 -26 -26 -26 -27 -27 -28 -28 -29 -30 -31 -32 -32 -32 -32 -32 -32
-26 -26 -26 -26 -26 -26 -26 -26 -26 -26 -26 -26 -25 -25 -25 -25 -25 -25 -25 -25 -25 -25 -25 -25 -25 -25 -25 -25 -25 -25 -26 -26 -26 -26 -26 -26 -26 -26 -27 -27 -28 -29 -30 -31 -32 -32 -32 -32 -32 -32 -32 -32 -32 -32
-26 -26 -26 -26 -26 -26 -26 -26 -26 -26 -26 -26 -26 -26 -26 -26 -26 -26 -26 -26 -26 -26 -26 -26 -26 -26 -26 -26 -26 -26 -26 -26 -26 -26 -27 -27 -28 -29 -30 -31 -31 -32 -32 -32 -32 -32 -32 -32 -32 -32 -32 -32 -33 -33
-26 -26 -26 -26 -27 -26 -26 -27 -27 -26 -26 -26 -26 -26 -26 -26 -26 -26 -26 -26 -26 -26 -26 -26 -26 -26 -26 -26 -27 -27 -27 -27 -28 -29 -29 -30 -32 -32 -32 -33 -32 -32 -32 -32 -32 -32 -33 -33 -33 -33 -33 -33 -33 -33
-26 -27 -27 -27 -27 -27 -27 -27 -27 -27 -28 -27 -27 -28 -28 -28 -28 -28 -28 -28 -28 -28 -29 -29 -29 -29 -29 -30 -30 -30 -31 -31 -31 -31 -31 -32 -32 -32 -32 -32 -32 -32 -33 -33 -33 -33 -33 -33 -33 -34 -34 -34 -34 -34
-27 -27 -27 -27 -28 -28 -28 -28 -29 -29 -30 -30 -30 -30 -30 -30 -31 -31 -31 -31 -31 -31 -31 -31 -31 -31 -31 -31 -31 -31 -31 -32 -32 -32 -32 -32 -32 -32 -33 -33 -33 -33 -33 -33 -34 -34 -34 -34 -34 -34 -34 -34 -34 -35
-28 -28 -28 -29 -29 -30 -31 -31 -31 -31 -31 -31 -31 -31 -31 -31 -31 -31 -31 -31 -31 -31 -31 -31 -32 -32 -32 -32 -32 -32 -32 -32 -33 -33 -33 -33 -33 -33 -33 -34 -34 -34 -34 -34 -34 -34 -34 -34 -34 -34 -34 -35 -35 -36
-29 -30 -31 -31 -31 -31 -31 -31 -31 -31 -31 -32 -32 -32 -32 -32 -32 -32 -32 -32 -32 -32 -32 -32 -32 -33 -33 -33 -33 -33 -33 -33 -33 -34 -34 -34 -34 -34 -34 -34 -34 -34 -34 -34 -34 -34 -34 -35 -35 -35 -35 -35 -36 -36
-31 -31 -31 -32 -32 -32 -32 -32 -32 -32 -32 -32 -32 -32 -33 -33 -33 -33 -33 -33 -33 -33 -33 -33 -33 -33 -33 -34 -34 -34 -34 -34 -34 -34 -34 -34 -34 -34 -34 -34 -34 -34 -34 -34 -35 -35 -35 -35 -35 -35 -35 -36 -36 -36
-32 -32 -32 -32 -32 -32 -32 -32 -32 -33 -33 -33 -33 -33 -33 -33 -33 -33 -33 -33 -33 -34 -34 -34 -34 -34 -34 -34 -34 -34 -34 -34 -34 -34 -34 -34 -34 -34 -34 -34 -34 -35 -35 -35 -36 -36 -36 -36 -36 -36 -37 -37 -37 -37
-32 -32 -33 -33 -33 -33 -33 -33 -33 -33 -33 -33 -33 -33 -33 -33 -34 -34 -34 -34 -34 -34 -34 -34 -34 -34 -34 -34 -34 -34 -34 -34 -34 -34 -34 -34 -34 -35 -35 -35 -36 -36 -36 -36 -36 -37 -37 -37 -37 -37 -37 -38 -38 -38
-33 -33 -33 -33 -33 -33 -33 -33 -34 -34 -34 -34 -34 -34 -34 -34 -34 -34 -34 -34 -34 -34 -34 -34 -34 -34 -34 -34 -34 -34 -34 -34 -34 -35 -35 -35 -36 -36 -36 -36 -37 -37 -37 -37 -37 -37 -38 -38 -38 -38 -38 -38 -39 -39
Height
5282 5287 5293 5301 5308 5316 5324 5334 5343 5353 5364 5377 5403 5439 5464 5486 5508 5531 5561 5573 5576 5589 5599 5610 5620 5628 5638 5643 5652 5662 5668 5674 5680 5685 5689 5693 5695 5697 5698 5699 5701 5702 5703 5705 5705 5706 5707 5707 5706 5707 5706 5703 5701 5699
5285 5288 5292 5299 5305 5312 5321 5330 5339 5349 5362 5383 5422 5450 5470 5492 5512 5537 5558 5572 5583 5587 5591 5602 5611 5621 5630 5642 5648 5657 5666 5673 5678 5680 5684 5688 5691 5693 5694 5695 5696 5698 5699 5700 5702 5701 5700 5699 5699 5697 5695 5695 5692 5688
5295 5297 5302 5307 5311 5316 5324 5332 5343 5358 5378 5412 5434 5457 5477 5498 5522 5542 5567 5574 5579 5577 5586 5597 5605 5618 5624 5633 5642 5651 5657 5664 5669 5673 5679 5682 5685 5688 5689 5691 5691 5692 5693 5694 5695 5694 5691 5690 5690 5687 5687 5683 5679 5676
5313 5318 5323 5325 5330 5333 5342 5353 5368 5386 5412 5430 5448 5469 5489 5512 5531 5545 5552 5546 5550 5567 5581 5595 5605 5613 5623 5630 5640 5650 5656 5663 5667 5668 5671 5675 5679 5682 5684 5685 5685 5686 5687 5686 5687 5686 5684 5680 5678 5678 5675 5672 5668 5664
5340 5343 5349 5353 5360 5366 5377 5387 5401 5414 5428 5445 5463 5483 5502 5518 5539 5541 5556 5558 5562 5570 5582 5592 5602 5611 5618 5626 5634 5643 5649 5654 5659 5662 5664 5668 5673 5676 5677 5677 5678 5678 5679 5678 5677 5677 5675 5671 5670 5667 5663 5660 5657 5653
5367 5370 5374 5379 5385 5395 5403 5412 5424 5436 5449 5465 5480 5495 5511 5528 5538 5543 5552 5558 5565 5573 5582 5589 5600 5608 5615 5622 5629 5636 5642 5648 5651 5655 5658 5662 5666 5668 5668 5669 5670 5670 5670 5668 5667 5665 5662 5661 5660 5657 5653 5649 5645 5642
5392 5396 5400 5404 5409 5416 5424 5432 5441 5453 5466 5479 5492 5507 5520 5533 5545 5552 5558 5564 5567 5574 5581 5589 5596 5603 5611 5618 5624 5631 5636 5640 5644 5649 5652 5655 5658 5658 5659 5660 5661 5661 5660 5659 5656 5653 5651 5648 5647 5644 5641 5638 5634 5630
5410 5415 5419 5424 5429 5436 5442 5451 5460 5471 5481 5491 5502 5515 5527 5537 5536 5548 5555 5561 5566 5574 5580 5586 5592 5599 5605 5611 5617 5624 5629 5634 5638 5643 5645 5646 5648 5649 5649 5650 5650 5650 5649 5647 5645 5642 5639 5636 5633 5631 5628 5625 5621 5617
5430 5433 5436 5440 5445 5452 5459 5466 5473 5482 5492 5501 5511 5522 5531 5538 5543 5548 5554 5560 5566 5573 5576 5582 5589 5595 5600 5606 5612 5617 5622 5626 5630 5633 5635 5638 5639 5639 5640 5640 5640 5638 5637 5637 5633 5630 5627 5625 5622 5619 5616 5612 5607 5603
5446 5449 5452 5456 5460 5466 5472 5479 5487 5494 5501 5509 5517 5524 5531 5537 5544 5549 5554 5559 5564 5569 5574 5580 5585 5590 5596 5601 5606 5612 5615 5618 5620 5624 5625 5628 5629 5630 5629 5629 5629 5627 5625 5623 5620 5617 5615 5613 5610 5607 5603 5599 5594 5590
5457 5460 5465 5468 5472 5477 5482 5488 5493 5499 5505 5511 5517 5524 5533 5537 5544 5548 5552 5558 5563 5568 5573 5578 5583 5587 5591 5596 5600 5604 5606 5609 5611 5614 5615 5617 5619 5620 5618 5618 5617 5615 5613 5611 5608 5605 5603 5600 5597 5593 5588 5585 5581 5576
5466 5469 5472 5476 5480 5484 5489 5494 5499 5505 5510 5515 5522 5528 5533 5539 5545 5548 5552 5557 5561 5563 5570 5575 5581 5585 5588 5591 5593 5596 5598 5600 5602 5605 5606 5607 5611 5609 5608 5607 5605 5603 5600 5598 5596 5593 5590 5587 5583 5579 5576 5572 5568 5563
5473 5476 5479 5483 5486 5489 5494 5497 5502 5507 5512 5517 5523 5528 5534 5538 5542 5546 5550 5556 5559 5563 5569 5574 5577 5580 5583 5585 5587 5589 5589 5592 5593 5594 5596 5599 5599 5598 5597 5595 5593 5591 5588 5586 5583 5580 5577 5574 5570 5566 5562 5557 5553 5548
5480 5482 5485 5489 5493 5496 5500 5504 5508 5512 5516 5520 5525 5529 5532 5537 5542 5548 5552 5555 5559 5562 5565 5568 5571 5573 5576 5578 5580 5581 5582 5582 5583 5584 5587 5588 5586 5585 5583 5581 5580 5577 5575 5573 5570 5567 5564 5560 5556 5551 5547 5542 5537 5532
5484 5486 5489 5492 5496 5501 5504 5508 5512 5516 5520 5524 5527 5531 5534 5539 5544 5547 5550 5553 5555 5558 5561 5563 5565 5568 5570 5570 5572 5573 5573 5573 5574 5575 5577 5575 5574 5571 5569 5568 5565 5564 5562 5560 5556 5553 5549 5545 5540 5536 5531 5526 5522 5518
5487 5491 5493 5496 5500 5503 5506 5510 5514 5519 5521 5524 5529 5532 5535 5539 5541 5544 5546 5549 5552 5554 5556 5558 5560 5561 5562 5563 5563 5564 5564 5563 5564 5564 5562 5561 5560 5558 5557 5556 5553 5551 5548 5545 5541 5537 5534 5530 5525 5521 5516 5512 5508 5502
5490 5492 5494 5497 5501 5504 5507 5511 5514 5517 5520 5524 5527 5530 5533 5535 5537 5540 5542 5544 5545 5548 5550 5551 5552 5553 5553 5553 5553 5554 5554 5553 5552 5551 5550 5549 5548 5546 5545 5542 5539 5536 5533 5529 5526 5522 5518 5514 5510 5506 5502 5495 5491 5486
5492 5494 5496 5498 5500 5503 5505 5508 5512 5515 5517 5520 5523 5525 5527 5530 5532 5533 5535 5537 5539 5540 5541 5542 5543 5543 5543 5542 5542 5543 5542 5541 5541 5540 5539 5537 5535 5533 5530 5527 5524 5521 5518 5514 5511 5507 5503 5499 5495 5490 5484 5478 5472 5467
5490 5493 5495 5498 5500 5502 5504 5506 5508 5510 5513 5515 5516 5518 5520 5522 5524 5525 5527 5529 5530 5531 5532 5532 5533 5533 5533 5533 5532 5532 5531 5530 5529 5527 5525 5523 5520 5518 5515 5512 5509 5506 5503 5500 5496 5493 5488 5483 5478 5473 5467 5461 5454 5449
5486 5489 5492 5494 5497 5498 5500 5502 5504 5506 5506 5508 5510 5511 5512 5514 5515 5516 5518 5519 5520 5521 5522 5522 5522 5522 5522 5521 5520 5519 5518 5517 5515 5513 5511 5509 5507 5504 5501 5498 5495 5492 5489 5485 5481 5477 5472 5467 5461 5455 5450 5444 5437 5432
5484 5484 5486 5488 5490 5493 5494 5495 5497 5498 5500 5501 5502 5503 5504 5505 5505 5506 5507 5507 5509 5510 5510 5510 5510 5510 5509 5508 5507 5505 5504 5502 5501 5499 5498 5495 5493 5490 5487 5484 5481 5477 5473 5469 5464 5458 5453 5448 5443 5438 5433 5428 5422 5417
5483 5484 5484 5485 5486 5487 5488 5489 5490 5491 5492 5492 5493 5493 5493 5494 5495 5496 5496 5496 5496 5497 5497 5497 5497 5497 5496 5495 5494 5493 5492 5490 5488 5486 5483 5482 5479 5476 5472 5468 5464 5460 5455 5450 5445 5440 5436 5432 5427 5423 5419 5414 5409 5403
5485 5485 5485 5485 5486 5486 5487 5487 5487 5487 5487 5487 5487 5488 5488 5488 5488 5489 5488 5488 5488 5488 5487 5487 5486 5485 5485 5483 5482 5480 5479 5476 5474 5471 5468 5465 5462 5458 5454 5449 5445 5441 5437 5433 5429 5426 5422 5418 5414 5409 5404 5399 5393 5387
5485 5485 5485 5485 5485 5484 5484 5483 5482 5482 5481 5481 5480 5480 5480 5480 5480 5479 5479 5478 5477 5477 5476 5475 5474 5472 5471 5469 5467 5465 5463 5460 5457 5454 5451 5447 5444 5440 5436 5432 5430 5427 5424 5420 5416 5412 5408 5404 5399 5394 5389 5383 5376 5370
5483 5483 5482 5481 5480 5479 5478 5476 5475 5474 5473 5471 5470 5469 5469 5469 5468 5467 5466 5465 5464 5462 5461 5459 5458 5456 5454 5452 5450 5447 5445 5442 5439 5436 5433 5430 5428 5426 5423 5421 5418 5414 5411 5407 5402 5398 5393 5388 5383 5377 5371 5365 5359 5352
5477 5476 5476 5473 5471 5470 5468 5467 5465 5462 5461 5460 5459 5457 5456 5455 5455 5453 5452 5451 5449 5448 5446 5445 5443 5441 5439 5437 5435 5433 5431 5429 5427 5424 5422 5419 5417 5414 5411 5408 5406 5401 5396 5392 5387 5382 5377 5372 5366 5360 5353 5347 5340 5334
5469 5467 5466 5464 5462 5462 5459 5457 5455 5453 5452 5451 5450 5449 5447 5446 5445 5444 5442 5441 5439 5438 5436 5435 5433 5431 5429 5427 5425 5423 5421 5418 5416 5414 5411 5408 5405 5401 5398 5394 5390 5386 5381 5376 5371 5366 5360 5354 5348 5341 5334 5327 5320 5314
5460 5457 5456 5454 5452 5450 5450 5449 5448 5447 5446 5445 5443 5442 5440 5439 5438 5436 5434 5432 5430 5428 5426 5424 5422 5420 5418 5416 5413 5411 5408 5406 5403 5400 5397 5394 5390 5386 5382 5379 5374 5369 5364 5359 5353 5347 5340 5334 5327 5320 5313 5307 5300 5294
5451 5450 5449 5448 5447 5446 5445 5444 5442 5440 5438 5436 5434 5432 5430 5427 5426 5423 5421 5419 5417 5415 5413 5411 5408 5406 5404 5401 5399 5396 5394 5391 5389 5385 5382 5379 5376 5373 5367 5362 5357 5352 5346 5340 5333 5326 5320 5313 5306 5300 5294 5289 5283 5278
5447 5446 5444 5443 5441 5439 5437 5435 5433 5430 5427 5425 5423 5421 5418 5416 5414 5412 5409 5407 5405 5402 5400 5397 5395 5392 5389 5387 5385 5382 5380 5377 5374 5371 5367 5363 5359 5354 5349 5344 5338 5332 5325 5318 5312 5305 5299 5294 5289 5284 5279 5274 5269 5264
5441 5439 5437 5435 5432 5430 5427 5425 5422 5419 5417 5414 5412 5410 5407 5405 5402 5399 5397 5394 5391 5389 5387 5384 5382 5379 5377 5374 5372 5369 5367 5363 5359 5355 5350 5345 5340 5334 5328 5322 5316 5310 5303 5298 5292 5287 5282 5277 5273 5268 5264 5259 5255 5251
5434 5431 5429 5426 5423 5420 5416 5413 5409 5407 5405 5402 5399 5397 5394 5392 5390 5388 5385 5383 5380 5378 5376 5374 5372 5369 5366 5363 5360 5356 5352 5347 5343 5338 5332 5325 5319 5313 5307 5300 5295 5289 5284 5279 5274 5269 5265 5261 5256 5252 5248 5244 5240 5237
5426 5423 5420 5416 5412 5409 5405 5401 5398 5396 5393 5391 5388 5386 5384 5382 5380 5378 5375 5373 5371 5368 5366 5363 5360 5357 5353 5349 5344 5340 5335 5330 5324 5317 5311 5304 5298 5292 5286 5281 5275 5270 5265 5260 5256 5251 5247 5242 5238 5234 5231 5227 5224 5221
Wind_Speed
21 27 29 31 36 38 40 36 39 43 42 62 96 100 88 96 87 86 66 56 27 44 50 54 51 58 56 60 58 50 48 45 38 31 26 21 18 14 13 12 13 14 13 13 15 16 19 20 24 25 28 31 34 37
24 23 29 34 33 34 36 38 40 40 48 72 95 78 88 82 82 73 70 48 35 36 45 63 57 60 59 50 57 50 45 42 36 32 29 25 22 20 18 16 16 17 16 17 19 21 24 27 27 31 32 34 38 41
47 45 42 40 34 34 38 41 44 56 67 90 76 81 78 78 71 65 54 54 43 60 45 60 56 57 60 60 55 54 51 47 40 38 32 30 27 23 22 21 22 21 21 22 23 25 30 32 33 36 36 40 43 44
48 46 50 47 53 52 52 66 66 78 84 56 67 70 72 73 68 79 56 63 36 34 40 58 53 54 55 56 55 50 50 45 39 38 37 36 32 28 26 27 27 27 26 28 29 31 34 38 40 40 42 44 46 45
53 50 53 53 59 54 60 55 58 62 65 69 66 66 67 65 65 47 61 38 45 48 46 52 50 47 52 57 53 52 50 49 46 43 41 38 34 32 31 33 33 33 33 35 36 37 37 42 43 45 47 47 46 46
46 45 49 48 48 52 54 54 58 61 65 66 66 63 69 68 70 56 38 34 44 42 42 49 49 46 47 50 53 51 48 47 48 48 45 42 37 37 37 37 38 38 38 40 42 42 45 46 45 45 45 47 47 47
42 44 48 50 55 53 46 52 57 60 58 60 55 53 61 59 48 41 36 35 39 41 38 38 40 43 44 47 49 49 47 48 50 47 45 43 41 41 41 41 41 41 42 43 43 45 49 48 47 46 46 46 48 49
34 35 37 38 42 47 51 53 51 54 55 54 56 56 52 47 39 43 39 33 33 36 38 36 35 39 44 45 48 48 44 44 46 43 44 43 43 43 44 44 44 44 46 45 45 45 48 49 49 47 47 49 50 51
39 42 39 40 42 43 47 49 50 51 52 52 52 52 44 39 32 28 24 27 29 32 31 31 31 35 40 41 43 44 43 41 42 44 45 44 44 46 45 45 46 47 48 46 45 47 47 46 47 48 50 51 50 49
29 30 34 37 38 39 41 42 43 44 45 47 48 49 42 40 37 34 30 35 27 27 32 27 28 31 36 39 40 41 41 42 44 45 45 45 45 46 47 46 46 45 46 45 47 47 47 48 48 50 50 49 49 50
19 20 27 26 34 38 36 38 39 41 42 44 46 49 43 40 34 32 32 42 37 29 32 29 26 30 31 37 37 41 42 44 44 44 45 45 46 44 43 43 42 42 44 46 48 49 50 51 52 51 50 50 52 54
19 15 20 27 25 28 32 33 38 36 36 38 37 39 40 34 25 31 31 36 47 40 37 30 24 27 33 36 38 40 41 43 45 45 46 47 44 41 39 39 41 43 45 48 49 50 51 51 50 50 51 53 55 58
24 21 16 20 22 29 26 30 31 32 33 33 33 33 33 33 36 34 35 26 27 25 32 36 34 28 31 33 36 37 40 42 43 46 47 45 40 38 38 41 43 45 46 48 49 49 49 49 50 52 53 56 59 61
13 17 15 20 15 21 24 22 23 25 27 29 30 31 32 31 31 25 22 24 22 25 28 32 33 31 29 31 34 36 38 40 42 42 40 37 39 41 42 44 45 47 47 47 47 49 49 50 52 55 57 60 59 54
11 17 20 27 24 19 17 13 17 20 22 26 24 27 27 31 26 24 25 26 25 22 23 24 26 28 30 32 32 33 36 37 38 38 38 40 42 44 44 44 44 45 46 45 47 50 51 54 56 58 57 52 50 52
10 14 17 20 24 20 17 17 17 17 20 24 21 21 24 27 27 24 23 25 24 24 24 24 26 28 29 31 33 36 37 39 39 41 43 41 40 41 42 43 45 47 48 50 52 54 56 57 55 51 49 51 54 58
9 11 14 16 17 20 23 21 19 24 22 25 27 21 22 23 24 24 25 25 27 30 28 28 29 31 33 35 35 37 39 40 39 37 38 40 40 43 46 48 50 51 52 54 56 56 52 49 49 52 54 58 60 62
11 12 12 14 14 16 18 19 21 21 24 27 29 30 32 32 34 33 32 33 33 33 32 33 33 34 35 35 34 34 34 36 37 39 41 44 47 50 52 53 54 55 55 53 50 49 50 53 55 58 61 63 65 66
12 13 15 16 16 14 12 13 13 14 16 21 24 25 25 25 25 26 28 30 32 34 34 35 36 35 36 37 38 39 40 42 43 46 50 52 52 53 53 52 51 48 48 49 51 54 57 59 61 63 65 66 66 64
16 18 19 20 20 21 22 24 23 24 25 28 27 28 27 27 28 29 30 29 32 33 33 37 39 41 42 42 44 45 47 49 50 49 47 47 46 46 46 47 48 51 53 56 58 60 62 64 65 66 64 62 59 58
6 7 9 14 17 20 21 25 26 28 30 30 29 29 30 31 32 34 36 37 38 40 43 44 44 47 49 49 47 43 41 41 41 42 43 44 45 47 49 52 54 57 59 62 64 64 64 64 61 58 54 53 53 54
6 5 4 3 2 3 4 8 10 12 15 18 21 24 25 26 27 28 29 30 30 29 30 31 32 32 33 34 36 38 39 41 42 45 47 48 51 53 56 58 60 62 63 63 62 58 55 52 51 51 53 53 55 59
8 9 8 7 6 6 8 9 12 14 15 16 17 19 20 21 22 23 25 27 28 29 30 32 34 35 37 39 41 43 45 47 49 51 53 56 58 60 61 62 62 59 55 51 48 48 50 52 52 52 54 59 62 65
10 11 13 12 14 17 17 16 18 18 19 22 25 27 29 30 30 32 33 34 36 38 39 41 42 44 46 47 49 50 52 54 56 57 58 58 57 56 52 48 46 46 47 48 52 56 55 54 55 59 62 64 65 66
19 20 23 26 29 26 22 24 27 29 28 28 29 31 33 35 37 39 40 42 43 44 45 46 48 49 50 52 52 52 51 49 47 44 42 40 38 38 38 39 43 49 53 55 53 54 57 59 61 62 63 64 65 67
23 27 30 32 32 28 26 31 32 28 26 26 28 30 31 33 34 34 35 36 37 37 37 37 36 35 35 34 33 31 30 29 29 30 32 33 35 37 40 43 45 48 52 55 56 57 57 59 61 63 65 67 68 69
27 27 28 29 30 31 32 29 25 21 21 21 21 21 22 22 23 24 25 25 26 26 27 28 28 29 30 31 32 34 35 35 35 36 37 39 41 44 46 48 50 51 53 54 56 58 61 65 67 68 69 71 71 69
29 30 27 24 21 19 16 15 15 16 18 19 21 23 25 27 29 31 32 33 34 34 35 36 37 38 38 39 39 39 39 39 41 42 43 45 46 47 49 50 52 54 56 59 63 67 69 70 71 70 69 67 65 62
21 17 16 14 16 19 20 21 23 25 26 28 30 31 32 34 35 35 35 36 36 36 36 36 37 38 39 40 41 42 43 43 44 45 46 46 47 48 51 54 57 60 64 67 69 70 69 67 64 60 57 55 53 52
14 16 18 20 22 24 27 29 31 32 32 32 31 30 30 31 32 34 35 35 36 37 37 38 39 39 40 41 41 41 42 43 43 44 45 48 50 54 57 61 65 68 69 68 66 64 61 56 52 51 50 49 47 45
19 21 23 26 28 30 31 32 32 32 32 32 33 33 35 36 36 36 36 36 35 35 34 34 34 34 34 34 36 37 40 42 45 49 52 56 60 63 66 67 67 66 63 60 59 56 52 50 50 50 48 47 45 43
24 26 28 31 33 34 35 35 35 34 33 33 34 34 33 32 31 31 31 30 30 30 30 31 32 34 36 38 41 44 47 50 53 57 61 64 65 65 64 62 60 58 57 55 54 52 52 52 51 50 49 48 46 43
27 30 32 33 34 34 34 33 31 29 28 27 26 26 26 26 26 27 28 28 30 31 33 36 38 40 43 45 48 52 55 58 61 62 62 61 60 59 58 58 57 56 55 55 54 54 53 52 51 50 49 47 46 44
Wind_Direction
179 188 197 199 194 196 199 202 202 201 194 185 186 175 171 180 182 189 181 187 157 193 205 203 203 205 202 210 211 202 204 204 206 209 213 217 219 224 228 228 228 231 236 246 254 263 268 274 278 282 287 289 290 292
137 157 185 190 185 183 187 189 178 180 176 172 172 164 172 173 181 182 187 181 166 178 194 201 206 204 204 208 211 203 206 207 209 212 217 220 226 229 236 244 247 250 250 259 266 274 277 280 285 288 289 294 295 295
109 109 107 107 127 138 148 152 154 150 151 160 162 167 168 176 173 166 164 154 192 202 202 197 206 204 205 211 210 204 206 205 210 217 220 226 229 234 242 252 255 260 264 270 276 279 284 286 288 289 298 295 297 298
80 78 96 100 105 104 106 129 126 143 149 162 159 163 167 170 167 173 174 192 157 183 193 203 206 206 207 213 215 210 212 214 218 225 225 230 234 238 246 253 260 267 271 274 280 281 286 287 292 296 296 296 295 295
96 102 108 111 113 119 133 127 132 147 157 162 160 161 166 172 161 175 196 206 212 208 204 205 208 209 211 214 215 214 216 219 222 227 231 235 240 246 252 257 263 267 274 277 279 284 285 285 292 294 295 295 295 295
98 97 111 114 115 118 122 128 139 137 142 149 157 162 170 172 184 192 200 205 195 199 205 208 210 214 216 217 217 219 221 224 228 230 235 239 245 249 254 259 264 269 274 279 283 286 285 288 290 291 292 291 293 295
86 105 112 118 125 127 123 129 137 145 155 161 162 161 165 168 171 186 196 207 204 204 204 206 211 216 220 221 220 224 227 230 231 235 240 244 249 252 257 260 264 270 275 279 283 285 287 289 291 289 289 291 292 295
111 119 129 131 127 133 130 134 138 147 150 153 158 163 162 161 164 181 190 187 198 202 203 206 212 216 221 221 221 224 228 232 236 240 243 246 249 255 259 263 269 274 276 280 283 284 285 285 287 289 290 293 294 294
117 114 119 129 134 136 139 142 142 146 149 152 155 157 159 173 184 178 172 182 191 191 199 208 213 219 221 221 223 225 229 233 237 241 245 248 252 257 262 267 270 274 277 279 280 280 281 283 286 289 291 292 292 293
113 120 127 131 131 134 136 140 143 148 154 158 161 161 169 177 184 186 181 177 175 195 206 207 211 217 219 219 222 225 229 233 238 243 247 250 254 260 264 268 271 274 277 279 279 279 281 283 286 289 290 291 293 293
119 131 131 138 145 143 146 151 154 158 163 168 169 171 177 184 187 193 195 186 190 203 207 205 211 215 216 216 221 225 231 236 240 244 249 253 257 260 266 270 273 275 277 277 277 280 283 286 289 291 291 292 292 293
142 124 116 140 147 155 166 166 169 171 173 174 172 176 181 180 192 200 194 197 203 211 207 214 221 230 227 222 225 227 234 237 243 247 251 256 261 265 269 272 274 274 275 276 279 281 284 286 288 289 288 289 291 294
149 159 124 132 137 157 153 160 164 170 175 174 171 179 178 185 194 198 190 206 208 205 217 226 229 230 237 237 236 237 242 245 249 253 257 262 266 269 271 271 271 272 273 276 279 282 283 284 284 286 288 291 293 294
145 153 158 165 130 140 157 164 171 171 173 178 175 178 183 196 195 197 210 210 202 205 213 222 230 234 235 238 240 243 247 250 253 258 263 269 271 272 273 273 274 275 277 279 280 282 283 284 287 289 291 292 294 294
159 154 155 165 169 173 177 157 169 161 177 181 191 198 200 195 198 210 218 219 222 230 228 232 233 233 235 240 242 247 253 257 262 268 271 273 274 274 275 276 277 279 281 282 282 284 286 288 290 291 292 293 293 294
198 181 176 182 186 188 189 188 194 193 204 195 195 207 209 215 230 224 225 221 219 222 226 231 236 242 247 254 259 262 264 266 271 273 274 273 272 275 277 279 280 282 284 284 285 287 289 290 291 292 292 292 294 297
198 210 214 209 203 200 202 207 204 199 202 207 211 221 221 222 222 228 244 248 237 234 232 240 251 256 261 261 263 263 267 270 270 271 272 275 273 275 279 282 283 285 286 286 287 288 289 290 290 292 294 296 297 298
198 200 200 204 206 214 221 228 227 222 217 221 225 229 235 237 237 243 244 239 238 241 250 257 262 261 262 264 264 265 266 265 266 266 268 270 273 277 281 283 284 284 285 286 287 288 290 292 293 295 295 295 296 297
232 219 209 210 207 207 218 208 211 221 234 236 237 238 243 246 246 246 246 250 254 255 255 254 253 256 259 261 262 264 264 267 268 270 273 276 278 281 283 283 284 286 287 288 289 290 291 292 292 293 294 295 296 297
252 244 238 231 227 229 228 231 241 250 260 247 249 244 246 249 252 254 256 256 253 253 253 254 259 262 260 258 256 255 257 262 269 275 278 280 281 282 283 284 285 285 286 287 288 288 289 290 291 292 294 295 296 298
231 241 241 247 245 242 243 245 248 250 249 245 245 242 242 244 247 249 250 249 245 243 240 243 247 247 250 254 262 269 275 278 279 280 279 280 281 282 283 283 284 284 285 285 286 287 289 290 292 294 295 298 300 303
62 56 36 30 347 309 267 266 261 263 263 265 267 266 268 267 266 267 268 268 269 270 271 272 273 273 274 274 275 276 277 277 277 278 278 278 279 279 280 281 282 283 284 286 288 290 291 293 296 297 300 300 301 301
20 12 355 341 332 324 310 301 292 284 278 272 270 269 268 268 268 269 268 269 270 270 270 270 270 271 271 272 273 274 275 276 276 277 278 279 280 281 281 282 283 286 288 290 291 295 296 297 298 298 300 300 299 300
346 345 349 336 318 311 306 309 310 302 288 278 273 270 268 267 267 267 267 268 268 269 270 270 271 272 273 273 274 274 275 276 276 277 277 278 279 281 283 283 282 284 290 291 292 295 295 294 296 297 298 299 300 301
325 326 326 325 324 320 299 294 299 294 293 286 278 274 270 268 267 267 268 269 270 271 272 272 273 274 274 275 275 276 277 278 279 279 280 279 280 280 282 284 283 282 283 287 290 292 293 295 296 297 299 300 302 303
312 316 320 321 318 308 297 307 308 298 287 279 275 274 274 273 273 273 273 274 275 277 278 279 280 280 281 282 284 287 288 288 287 286 285 284 284 285 283 282 282 284 287 289 290 292 295 297 299 300 300 301 302 302
314 317 316 315 317 310 307 307 298 290 285 282 282 282 282 282 283 285 286 287 287 286 286 286 285 286 285 283 284 285 286 286 284 283 282 280 280 280 281 282 284 285 287 289 291 294 297 299 300 300 300 300 300 301
309 311 313 312 307 302 300 293 290 290 290 288 287 288 288 287 287 288 287 286 285 284 284 284 284 283 282 281 282 282 282 281 281 282 283 284 284 284 284 286 288 290 291 293 295 297 299 300 300 300 300 300 301 301
301 302 298 299 298 297 296 296 296 295 293 290 290 290 290 288 288 287 286 285 284 283 282 282 282 281 281 280 280 280 281 282 283 284 284 285 285 285 287 289 291 293 294 296 298 298 299 299 299 300 301 303 303 304
293 293 297 301 303 302 300 298 297 295 293 292 291 291 292 292 291 290 289 288 287 286 285 284 283 282 281 280 280 281 282 283 284 285 286 288 289 291 292 293 294 296 297 297 298 299 299 299 299 301 303 304 305 305
301 305 306 305 306 306 305 304 302 298 294 293 292 292 292 292 292 291 290 289 287 286 285 285 285 285 285 284 283 283 284 286 288 289 291 292 293 294 296 296 297 297 297 297 298 298 297 297 299 300 302 302 303 302
307 308 308 308 307 306 305 303 299 296 294 292 292 292 292 291 289 290 290 289 288 286 285 286 287 287 288 289 289 290 290 291 292 292 293 294 296 296 297 297 297 297 298 298 297 297 297 297 298 298 299 298 298 297
309 310 311 309 308 308 305 303 300 299 298 297 295 294 294 294 292 292 291 290 289 288 287 287 288 289 290 291 291 292 292 293 294 295 296 296 297 297 298 298 298 298 297 297 296 296 296 296 296 296 296 295 295 294